Location: Newark
(45.5000°N, 11.4167°E)
Time: 03:25:09
(UTC+00:00)

A-11 Canister half - Pass Details

Date: 23 August 2019
Orbit: 1513 x 1686 km, 47.2° (Epoch: 18 September)

Event Time Altitude Azimuth Distance (km) Brightness Sun altitude
Rises 21:48:50 0° 289° (WNW) 4,772 12.2 -29.8°
Reaches altitude 10° 21:51:52 10° 288° (WNW) 3,809 11.5 -30.0°
Maximum altitude 22:01:36 76° 205° (SSW) 1,680 8.9 -30.7°
Enters shadow 22:03:43 60° 140° (SE) 1,849 9.0 -30.9°
Drops below altitude 10° 22:11:38 10° 122° (ESE) 3,924 - -31.3°
Sets 22:14:49 0° 121° (ESE) 4,922 - -31.5°
